Weather History for Provo, UT

Change the Weather History Date:

Tuesday, June 18, 2013

  Actual Average Record
Temperature  
Mean Temperature 72 °F -  
Max Temperature 91 °F 79 °F 95 °F (1989)
Min Temperature 53 °F 51 °F 41 °F (2014)
Cooling Degree Days 7    
Growing Degree Days 22 (Base 50)    
Moisture  
Dew Point 36 °F    
Average Humidity 32    
Maximum Humidity 51    
Minimum Humidity 11    
Precipitation  
Precipitation 0.00 in - - ()
Sea Level Pressure  
Sea Level Pressure 29.87 in    
Wind  
Wind Speed 6 mph (SE)    
Max Wind Speed 13 mph    
Max Gust Speed -    
Visibility 12 miles    
Events      
Averages and records for this station are not official NWS values.
T = Trace of Precipitation, MM = Missing Value Source: NWS Daily Summary

Daily Weather History Graph

Daily Weather History Graph

Search for Another Location

Airport:

Trip Planner

Search our weather history database for the weather conditions in past years. The results will help you decide how hot, cold, wet, or windy it might be!

Date:

Astronomy

Jun. 18, 2013 Rise Set
Actual Time 5:57 AM MDT 8:59 PM MDT
Civil Twilight 5:23 AM MDT 9:32 PM MDT
Nautical Twilight 4:41 AM MDT 10:14 PM MDT
Astronomical Twilight 3:52 AM MDT 11:03 PM MDT
Moon 3:47 PM MDT (6/18) 2:07 AM MDT (6/18)
Length of Visible Light 16h 08m
Length of Day
15h 02m
Waxing Gibbous, 71% of the Moon is Illuminated
Jun 18
Waxing Gibbous
Jun 23
Full
Jun 29
Last Quarter
Jul 8
New
Jul 15
First Quarter

Hourly Weather History & Observations

Time (MDT) Temp. Heat Index Dew Point Humidity Pressure Visibility Wind Dir Wind Speed Gust Speed Precip Events Conditions
12:15 AM 62.6 °F - 37.4 °F 39% 29.94 in 10.0 mi SE 6.9 mph - N/A   Clear
12:35 AM 60.8 °F - 37.4 °F 42% 29.94 in 10.0 mi SSE 8.1 mph - N/A   Clear
12:55 AM 62.6 °F - 37.4 °F 39% 29.94 in 10.0 mi SSE 11.5 mph - N/A   Clear
1:15 AM 62.6 °F - 33.8 °F 34% 29.94 in 10.0 mi SE 5.8 mph - N/A   Clear
1:35 AM 62.6 °F - 33.8 °F 34% 29.94 in 10.0 mi Calm Calm - N/A   Clear
1:55 AM 60.8 °F - 35.6 °F 39% 29.94 in 10.0 mi Calm Calm - N/A   Clear
2:15 AM 60.8 °F - 33.8 °F 36% 29.95 in 10.0 mi SE 10.4 mph - N/A   Clear
2:35 AM 57.2 °F - 33.8 °F 41% 29.95 in 10.0 mi East 5.8 mph - N/A   Clear
2:55 AM 55.4 °F - 30.2 °F 38% 29.95 in 10.0 mi East 3.5 mph - N/A   Clear
3:35 AM 60.8 °F - 35.6 °F 39% 29.94 in 10.0 mi Calm Calm - N/A   Clear
3:55 AM 57.2 °F - 37.4 °F 48% 29.94 in 10.0 mi South 3.5 mph - N/A   Clear
4:15 AM 57.2 °F - 35.6 °F 44% 29.94 in 10.0 mi Calm Calm - N/A   Clear
4:35 AM 57.2 °F - 35.6 °F 44% 29.94 in 10.0 mi Calm Calm - N/A   Clear
4:55 AM 57.2 °F - 32.0 °F 38% 29.94 in 10.0 mi SE 4.6 mph - N/A   Clear
5:15 AM 53.6 °F - 35.6 °F 51% 29.94 in 10.0 mi Calm Calm - N/A   Clear
5:35 AM 55.4 °F - 33.8 °F 44% 29.94 in 10.0 mi ESE 4.6 mph - N/A   Clear
5:55 AM 55.4 °F - 32.0 °F 41% 29.95 in 10.0 mi Calm Calm - N/A   Clear
6:15 AM 53.6 °F - 35.6 °F 51% 29.95 in 10.0 mi ESE 3.5 mph - N/A   Clear
6:35 AM 55.4 °F - 32.0 °F 41% 29.96 in 10.0 mi Calm Calm - N/A   Clear
6:53 AM 59.0 °F - 32.0 °F 36% 29.96 in 15.0 mi SE 8.1 mph - N/A   Partly Cloudy
7:56 AM 64.4 °F - 35.6 °F 34% 29.96 in 15.0 mi East 5.8 mph - N/A   Partly Cloudy
8:55 AM 69.8 °F - 32.0 °F 25% 29.96 in 15.0 mi ESE 4.6 mph - N/A   Partly Cloudy
9:55 AM 75.2 °F - 30.2 °F 19% 29.96 in 15.0 mi East 6.9 mph - N/A   Partly Cloudy
10:50 AM 80.6 °F - 33.8 °F 18% 29.94 in 15.0 mi Calm Calm - N/A   Clear
12:50 PM 87.8 °F - 28.4 °F 12% 29.90 in 15.0 mi Variable 5.8 mph - N/A   Clear
1:47 PM 87.8 °F - 28.4 °F 12% 29.88 in 15.0 mi Variable 3.5 mph - N/A   Partly Cloudy
2:48 PM 87.8 °F 86.1 °F 55.4 °F 33% 29.85 in 15.0 mi Variable 4.6 mph - N/A   Partly Cloudy
3:50 PM 89.6 °F - 28.4 °F 11% 29.82 in 15.0 mi Variable 5.8 mph - N/A   Clear
5:48 PM 91.4 °F - 32.0 °F 12% 29.77 in 15.0 mi SSW 6.9 mph - N/A   Clear
6:47 PM 89.6 °F - 37.4 °F 16% 29.74 in 15.0 mi SSW 8.1 mph - N/A   Clear
7:47 PM 84.2 °F - 42.8 °F 23% 29.73 in 15.0 mi SSW 10.4 mph - N/A   Clear
8:50 PM 78.8 °F - 42.8 °F 28% 29.73 in 15.0 mi South 8.1 mph - N/A   Clear
9:15 PM 75.2 °F - 35.6 °F 24% 29.73 in 10.0 mi SSE 8.1 mph - N/A   Clear
9:55 PM 75.2 °F - 35.6 °F 24% 29.73 in 10.0 mi SSE 12.7 mph - N/A   Clear
10:15 PM 75.2 °F - 33.8 °F 22% 29.73 in 10.0 mi SE 12.7 mph - N/A   Clear
10:35 PM 73.4 °F - 37.4 °F 27% 29.73 in 10.0 mi SE 9.2 mph - N/A   Clear
10:55 PM 73.4 °F - 39.2 °F 29% 29.73 in 10.0 mi SE 8.1 mph - N/A   Clear
11:15 PM 71.6 °F - 41.0 °F 33% 29.73 in 10.0 mi SE 11.5 mph - N/A   Clear
11:35 PM 71.6 °F - 39.2 °F 31% 29.73 in 10.0 mi SE 10.4 mph - N/A   Clear
11:55 PM 68.0 °F - 42.8 °F 40% 29.73 in 10.0 mi SE 6.9 mph - N/A   Clear